Location: Newark
(48.1500°N, 13.1167°E)
Time: 14:22:00
(UTC+00:00)

KAITUO 1B - Visible Passes

Search period start: 28 November 2021 00:00
Search period end: 08 December 2021 00:00
Orbit: 490 x 506 km, 97.4° (Epoch: 28 November)

Date Brightness Start Highest point End Pass type
(mag) Time Alt. Az. Time Alt. Az. Time Alt. Az.
28 Nov ? 05:19:39 10° NNE 05:23:13 40° E 05:26:44 10° S visible
28 Nov ? 16:00:57 10° SE 16:04:12 30° ENE 16:07:29 10° N visible
28 Nov ? 17:35:00 10° SSW 17:37:57 22° W 17:40:55 10° NW visible
29 Nov ? 04:59:49 10° NE 05:02:56 24° E 05:05:59 10° SSE visible
29 Nov ? 17:14:12 10° SSW 17:17:38 37° W 17:21:07 10° NNW visible
30 Nov ? 04:40:20 10° NE 04:42:34 15° E 04:44:46 10° SE visible
30 Nov ? 16:53:43 10° S 16:57:23 65° W 17:01:06 10° NNW visible
01 Dec ? 05:52:38 10° N 05:56:24 81° WNW 06:00:05 10° SSW visible
01 Dec ? 16:33:31 10° SSE 16:37:11 72° ENE 16:40:54 10° N visible
02 Dec ? 05:32:29 10° NNE 05:36:10 58° E 05:39:50 10° S visible
02 Dec ? 16:13:33 10° SE 16:17:02 41° ENE 16:20:34 10° N visible
02 Dec ? 17:48:31 10° SW 17:50:57 17° W 17:53:24 10° NW visible
03 Dec ? 05:12:29 10° NNE 05:15:54 33° E 05:19:17 10° SSE visible
03 Dec ? 15:53:51 10° SE 15:56:57 26° ENE 16:00:04 10° N visible
03 Dec ? 17:27:24 10° SSW 17:30:35 27° W 17:33:48 10° NW visible
04 Dec ? 04:52:43 10° NE 04:55:33 20° E 04:58:22 10° SE visible
04 Dec ? 17:06:43 10° S 17:10:17 45° W 17:13:53 10° NNW visible
05 Dec ? 04:33:30 10° ENE 04:35:09 12° E 04:36:47 10° ESE visible
05 Dec ? 06:05:33 10° N 06:09:13 57° WNW 06:12:50 10° SSW visible
05 Dec ? 16:46:19 10° S 16:50:01 80° WSW 16:53:46 10° NNW visible
06 Dec ? 05:45:17 10° NNE 05:49:01 83° ESE 05:52:43 10° SSW visible
06 Dec ? 16:26:11 10° SSE 16:29:48 58° ENE 16:33:30 10° N visible
06 Dec ? 18:02:21 10° WSW 18:03:54 12° W 18:05:27 10° WNW visible
07 Dec ? 05:25:09 10° NNE 05:28:45 47° E 05:32:19 10° S visible
07 Dec ? 16:06:17 10° SE 16:09:39 34° ENE 16:13:04 10° N visible
07 Dec ? 17:40:41 10° SW 17:43:28 20° W 17:46:17 10° NW visible
